• In Kazakhstan
  • List of Countries
  • For 7 days
  • Water Temperature
  • Satellite Maps
  • Weather Map
  • News
  • Weather Widgets
  • user-avatar
    Login

    Hourly Weather Canberra

    Today, 20 April, Saturday

    Time Temperature Precipitation Wind Pressure Humidity
    00:00 +14°C° 0 mm 1 mps 716 mmHg 89%
    01:00 +14°C° 0 mm 1 mps 716 mmHg 92%
    02:00 +14°C° 0 mm 1 mps 716 mmHg 93%
    03:00 +14°C° 0 mm 1 mps 716 mmHg 94%
    04:00 +14°C° 0 mm 1 mps 716 mmHg 96%
    05:00 +14°C° 0 mm 1 mps 716 mmHg 96%
    06:00 +14°C° 0 mm 1 mps 716 mmHg 96%
    07:00 +14°C° 0 mm 1 mps 716 mmHg 96%
    08:00 +16°C° 0 mm 1 mps 716 mmHg 84%
    09:00 +20°C° 0 mm 1 mps 717 mmHg 72%
    10:00 +21°C° 0 mm 0 mps 717 mmHg 60%
    11:00 +24°C° 0 mm 1 mps 717 mmHg 53%
    12:00 +26°C° 0 mm 1 mps 716 mmHg 47%
    13:00 +27°C° 0 mm 1 mps 716 mmHg 41%
    14:00 +26°C° 0 mm 1 mps 716 mmHg 41%
    15:00 +26°C° 0 mm 1 mps 715 mmHg 41%
    16:00 +26°C° 0 mm 1 mps 715 mmHg 41%
    17:00 +24°C° 0 mm 1 mps 715 mmHg 50%
    18:00 +21°C° 0 mm 1 mps 715 mmHg 59%
    19:00 +19°C° 0 mm 1 mps 715 mmHg 68%
    20:00 +18°C° 0 mm 1 mps 715 mmHg 77%
    21:00 +18°C° 0 mm 1 mps 715 mmHg 86%
    22:00 +16°C° 0 mm 1 mps 715 mmHg 95%
    23:00 +16°C° 0 mm 1 mps 715 mmHg 95%

    Tomorrow, 21 April, Sunday

    Time Temperature Precipitation Wind Pressure Humidity
    00:00 +16°C° 0 mm 1 mps 715 mmHg 95%
    01:00 +16°C° 0 mm 1 mps 715 mmHg 95%
    02:00 +15°C° 0 mm 1 mps 715 mmHg 96%
    03:00 +14°C° 0 mm 0 mps 715 mmHg 96%
    04:00 +14°C° 0 mm 0 mps 714 mmHg 96%
    05:00 +14°C° 0 mm 0 mps 714 mmHg 96%
    06:00 +13°C° 0 mm 0 mps 714 mmHg 96%
    07:00 +13°C° 0 mm 0 mps 715 mmHg 95%
    08:00 +18°C° 0 mm 1 mps 715 mmHg 84%
    09:00 +20°C° 0 mm 1 mps 715 mmHg 73%
    10:00 +23°C° 0 mm 1 mps 715 mmHg 62%
    11:00 +24°C° 0 mm 1 mps 715 mmHg 56%
    12:00 +25°C° 0 mm 2 mps 715 mmHg 50%
    13:00 +26°C° 0 mm 2 mps 714 mmHg 44%
    14:00 +26°C° 0 mm 2 mps 714 mmHg 45%
    15:00 +26°C° 0 mm 2 mps 714 mmHg 46%
    16:00 +26°C° 0 mm 2 mps 713 mmHg 47%
    17:00 +24°C° 0 mm 1 mps 713 mmHg 55%
    18:00 +22°C° 0 mm 1 mps 713 mmHg 62%
    19:00 +20°C° 0 mm 1 mps 713 mmHg 69%
    20:00 +19°C° 0 mm 1 mps 713 mmHg 72%
    21:00 +19°C° 0 mm 1 mps 714 mmHg 75%
    22:00 +16°C° 0 mm 0 mps 714 mmHg 78%
    23:00 +16°C° 0 mm 0 mps 713 mmHg 80%

    Day after tomorrow, 22 April, Monday

    Time Temperature Precipitation Wind Pressure Humidity
    00:00 +15°C° 0 mm 0 mps 713 mmHg 82%
    01:00 +15°C° 0 mm 0 mps 713 mmHg 84%
    02:00 +15°C° 0.4 mm 0 mps 713 mmHg 85%
    03:00 +15°C° 0.4 mm 0 mps 713 mmHg 85%
    04:00 +16°C° 0.4 mm 1 mps 713 mmHg 86%
    05:00 +16°C° 0.1 mm 1 mps 713 mmHg 87%
    06:00 +16°C° 0.1 mm 1 mps 713 mmHg 87%
    07:00 +16°C° 0.1 mm 1 mps 714 mmHg 88%
    08:00 +18°C° 0.1 mm 1 mps 714 mmHg 84%
    09:00 +19°C° 0.1 mm 1 mps 714 mmHg 80%
    10:00 +20°C° 0.1 mm 1 mps 715 mmHg 75%
    11:00 +21°C° 0 mm 1 mps 714 mmHg 69%
    12:00 +22°C° 0 mm 1 mps 714 mmHg 62%
    13:00 +24°C° 0 mm 1 mps 714 mmHg 56%
    14:00 +23°C° 0.3 mm 1 mps 714 mmHg 59%
    15:00 +23°C° 0.3 mm 1 mps 714 mmHg 62%
    16:00 +22°C° 0.3 mm 1 mps 714 mmHg 65%
    17:00 +20°C° 0.6 mm 2 mps 714 mmHg 74%
    18:00 +18°C° 0.6 mm 2 mps 714 mmHg 83%
    19:00 +16°C° 0.6 mm 2 mps 715 mmHg 93%
    20:00 +16°C° 0.1 mm 2 mps 715 mmHg 94%
    21:00 +16°C° 0.1 mm 2 mps 715 mmHg 95%
    22:00 +15°C° 0.1 mm 2 mps 716 mmHg 96%
    23:00 +15°C° 0 mm 2 mps 716 mmHg 95%

    23 April, Tuesday

    Time Temperature Precipitation Wind Pressure Humidity
    00:00 +15°C° 0 mm 2 mps 715 mmHg 95%
    01:00 +15°C° 0 mm 2 mps 715 mmHg 94%
    02:00 +15°C° 0 mm 2 mps 715 mmHg 93%
    03:00 +15°C° 0 mm 2 mps 715 mmHg 92%
    04:00 +15°C° 0 mm 2 mps 715 mmHg 91%
    05:00 +15°C° 0 mm 2 mps 715 mmHg 92%
    06:00 +15°C° 0 mm 2 mps 716 mmHg 92%
    07:00 +15°C° 0 mm 2 mps 716 mmHg 92%
    08:00 +17°C° 0 mm 2 mps 716 mmHg 85%
    09:00 +18°C° 0 mm 2 mps 717 mmHg 79%
    10:00 +19°C° 0 mm 2 mps 717 mmHg 72%
    11:00 +20°C° 0 mm 2 mps 716 mmHg 69%
    12:00 +20°C° 0 mm 2 mps 716 mmHg 67%
    13:00 +21°C° 0 mm 2 mps 716 mmHg 65%
    14:00 +21°C° 0 mm 2 mps 715 mmHg 66%
    15:00 +21°C° 0 mm 2 mps 715 mmHg 66%
    16:00 +20°C° 0 mm 2 mps 715 mmHg 67%
    17:00 +19°C° 0 mm 2 mps 715 mmHg 76%
    18:00 +17°C° 0 mm 2 mps 715 mmHg 84%
    19:00 +15°C° 0 mm 2 mps 715 mmHg 92%
    20:00 +15°C° 0 mm 1 mps 715 mmHg 94%
    21:00 +14°C° 0 mm 1 mps 715 mmHg 95%
    22:00 +14°C° 0 mm 1 mps 715 mmHg 96%
    23:00 +14°C° 0 mm 1 mps 715 mmHg 96%

    24 April, Wednesday

    Time Temperature Precipitation Wind Pressure Humidity
    00:00 +14°C° 0 mm 1 mps 715 mmHg 95%
    01:00 +15°C° 0 mm 1 mps 715 mmHg 94%
    02:00 +14°C° 0 mm 0 mps 714 mmHg 94%
    03:00 +14°C° 0 mm 0 mps 714 mmHg 93%
    04:00 +14°C° 0 mm 0 mps 714 mmHg 93%
    05:00 +14°C° 0 mm 0 mps 714 mmHg 94%
    06:00 +13°C° 0 mm 0 mps 714 mmHg 95%
    07:00 +13°C° 0 mm 0 mps 714 mmHg 96%
    08:00 +16°C° 0 mm 1 mps 714 mmHg 86%
    09:00 +19°C° 0 mm 1 mps 715 mmHg 76%
    10:00 +20°C° 0 mm 2 mps 715 mmHg 66%
    11:00 +21°C° 0.2 mm 3 mps 714 mmHg 65%
    12:00 +22°C° 0.2 mm 4 mps 714 mmHg 63%
    13:00 +22°C° 0.2 mm 5 mps 713 mmHg 62%
    14:00 +22°C° 0.1 mm 4 mps 712 mmHg 63%
    15:00 +21°C° 0.1 mm 4 mps 712 mmHg 64%
    16:00 +21°C° 0.1 mm 4 mps 712 mmHg 66%
    17:00 +19°C° 0.1 mm 3 mps 712 mmHg 75%
    18:00 +18°C° 0.1 mm 2 mps 712 mmHg 83%
    19:00 +16°C° 0.1 mm 2 mps 712 mmHg 92%
    20:00 +16°C° 0 mm 2 mps 712 mmHg 93%
    21:00 +15°C° 0 mm 2 mps 712 mmHg 94%
    22:00 +15°C° 0 mm 2 mps 712 mmHg 94%
    23:00 +14°C° 0 mm 2 mps 712 mmHg 93%

    25 April, Thursday

    Time Temperature Precipitation Wind Pressure Humidity
    00:00 +14°C° 0 mm 2 mps 712 mmHg 92%
    01:00 +13°C° 0 mm 1 mps 712 mmHg 91%
    02:00 +12°C° 0 mm 1 mps 711 mmHg 90%
    03:00 +12°C° 0 mm 1 mps 711 mmHg 90%
    04:00 +11°C° 0 mm 1 mps 711 mmHg 89%
    05:00 +11°C° 0 mm 1 mps 712 mmHg 88%
    06:00 +10°C° 0 mm 1 mps 712 mmHg 87%
    07:00 +10°C° 0 mm 1 mps 712 mmHg 86%
    08:00 +12°C° 0 mm 1 mps 713 mmHg 73%
    09:00 +15°C° 0 mm 2 mps 713 mmHg 60%
    10:00 +18°C° 0 mm 2 mps 713 mmHg 46%
    11:00 +19°C° 0 mm 3 mps 713 mmHg 42%
    12:00 +19°C° 0 mm 3 mps 713 mmHg 37%
    13:00 +20°C° 0 mm 4 mps 712 mmHg 33%
    14:00 +20°C° 0 mm 4 mps 712 mmHg 35%
    15:00 +19°C° 0 mm 4 mps 711 mmHg 37%
    16:00 +18°C° 0 mm 4 mps 711 mmHg 39%
    17:00 +15°C° 0 mm 4 mps 711 mmHg 47%
    18:00 +13°C° 0 mm 3 mps 712 mmHg 54%
    19:00 +11°C° 0 mm 3 mps 712 mmHg 62%
    20:00 +10°C° 0 mm 3 mps 712 mmHg 65%
    21:00 +10°C° 0 mm 2 mps 712 mmHg 68%
    22:00 +9°C° 0 mm 2 mps 712 mmHg 71%
    23:00 +9°C° 0 mm 2 mps 711 mmHg 71%
    Show more